Dewpoint
59 46 41 32 28 26 24 25 26 26 24 28 30 28 48 53 53 55 65 62 71 73 76 77 78 78 77 77 76 76 76 76 76 76 75 76 76 76 76 76 76 76 76 75 74 73 73 72 72
44 39 32 30 28 26 25 26 25 26 26 29 29 29 55 56 57 56 59 67 71 73 75 77 78 78 77 77 76 76 76 76 76 76 75 76 76 76 76 76 76 76 75 74 74 73 72 72 71
53 42 32 28 26 26 26 27 26 27 27 29 29 30 55 56 57 57 63 70 71 71 74 77 78 77 77 77 76 76 76 76 76 76 75 76 76 76 76 76 75 75 74 74 73 73 72 72 71
35 31 36 22 24 27 28 28 28 28 27 28 29 33 47 60 59 64 67 70 71 71 75 77 77 77 77 77 76 76 76 76 76 76 75 75 76 76 75 76 75 74 73 73 73 73 73 73 72
32 25 24 21 19 20 25 29 28 27 26 26 28 30 51 63 64 66 67 70 70 71 75 77 77 77 77 77 76 76 76 76 76 76 75 75 76 76 76 76 75 74 74 73 73 73 73 73 73
27 21 13 19 15 15 16 18 20 22 24 25 28 35 51 64 62 67 67 69 69 74 75 76 77 77 76 76 76 76 76 76 76 75 75 75 75 76 76 76 75 75 74 74 74 74 74 73 73
30 21 11 8 5 6 8 13 13 14 16 17 28 29 53 63 63 67 67 67 72 72 74 75 76 76 76 76 76 76 75 75 75 75 75 75 75 75 75 75 75 74 74 74 74 74 74 73 73
33 30 21 8 5 1 1 4 10 12 13 15 21 30 48 61 62 63 66 66 70 71 72 74 75 75 73 75 76 76 75 75 75 75 75 75 75 75 75 74 75 74 75 75 74 74 73 73 73
36 30 24 20 6 1 -1 -4 -4 6 8 9 13 37 56 62 61 63 64 67 69 69 70 72 74 75 75 75 75 76 76 75 75 75 75 74 73 73 73 73 74 74 74 74 74 73 73 73 73
36 31 28 23 17 13 8 3 -1 -2 1 7 25 51 55 60 60 61 62 64 67 67 67 69 71 72 72 72 74 74 74 74 74 73 73 72 70 71 71 71 74 74 74 74 74 73 73 73 70
34 33 30 28 25 22 19 18 18 12 0 5 8 18 52 52 58 60 61 62 66 66 66 66 67 68 68 71 72 72 73 73 72 71 71 69 68 70 69 70 71 72 73 71 72 72 71 69 68
24 31 33 31 29 26 22 22 20 19 11 5 6 9 41 51 51 56 60 61 65 65 64 64 64 64 62 69 67 68 69 69 69 69 69 68 68 68 66 69 70 69 69 68 67 68 68 67 64
21 22 29 32 30 28 26 23 20 18 19 6 5 8 9 41 49 49 52 58 66 65 64 64 64 62 66 66 64 65 66 67 66 67 68 66 66 67 65 66 68 69 68 68 67 66 65 64 63
26 24 22 21 24 27 25 23 20 18 20 18 13 11 14 13 35 44 48 50 66 69 68 70 70 70 67 65 63 65 66 66 66 66 68 66 66 67 67 66 68 68 66 67 67 66 67 65 64
23 21 24 22 20 20 23 22 20 19 20 19 21 11 17 19 34 40 42 49 69 69 70 70 70 71 71 69 65 66 66 66 67 67 68 67 67 69 69 68 67 67 66 67 67 67 65 64 64
23 22 20 22 23 21 22 20 21 21 19 19 20 21 15 18 22 30 32 39 68 66 68 68 70 70 70 73 69 67 69 67 68 68 69 69 69 71 71 70 69 69 69 67 65 64 64 65 66
27 21 22 20 23 22 21 20 22 22 20 19 19 22 19 18 23 25 26 28 67 63 64 63 65 67 70 73 72 69 71 67 69 71 70 70 71 71 70 70 70 71 70 68 66 67 67 67 67
26 21 22 21 21 23 20 20 22 22 21 19 20 23 21 21 22 25 31 33 65 60 63 65 65 64 67 72 73 73 73 73 73 72 71 73 73 72 71 71 71 71 69 69 69 66 68 67 66
28 24 19 22 22 23 21 19 20 21 21 21 19 22 24 24 25 27 29 33 65 64 61 62 64 64 68 71 71 71 71 72 73 74 73 73 72 71 71 71 70 69 69 69 67 66 65 64 65
30 27 23 20 19 21 21 19 19 21 20 20 23 20 22 23 26 30 28 32 71 71 69 66 69 70 71 72 72 71 71 70 71 72 72 72 71 72 71 70 69 70 69 68 67 65 64 64 64
28 27 27 24 22 18 20 19 20 20 21 21 22 24 22 26 24 27 30 36 72 72 71 71 72 72 72 73 72 71 71 71 69 69 71 71 71 71 71 70 70 69 69 68 66 65 63 62 64
20 24 27 26 24 21 19 17 22 21 20 21 20 24 27 26 26 27 34 44 69 67 68 67 72 72 71 73 71 69 69 68 68 70 71 70 70 69 69 69 69 68 68 66 65 66 65 62 59
17 19 20 24 23 22 21 19 19 22 19 21 24 24 24 29 28 26 34 60 67 68 67 66 69 70 71 72 71 70 70 69 70 70 70 69 69 68 68 69 68 67 68 67 66 64 64 64 64
22 18 18 19 21 20 21 20 19 22 20 23 25 25 25 26 30 29 35 62 67 66 65 64 66 70 70 71 71 70 70 68 68 69 68 68 67 67 68 68 67 67 67 66 66 65 64 64 63
29 23 14 18 18 18 21 21 23 23 24 23 24 25 25 26 26 31 50 56 66 66 66 68 70 70 69 70 70 69 68 67 67 68 68 67 66 67 66 67 67 66 66 65 64 63 63 63 62
30 27 15 24 26 19 21 21 23 25 23 25 25 26 24 29 26 36 46 51 63 69 70 70 69 69 68 69 69 68 68 68 68 67 67 66 66 65 64 63 62 62 62 62 61 61 60 62 61
34 30 25 25 28 23 20 22 25 25 29 41 31 26 23 28 28 32 41 46 66 68 68 68 68 68 68 68 67 67 67 66 64 63 63 63 63 62 62 61 60 60 59 60 58 59 58 57 56
35 31 21 20 23 22 18 18 21 22 40 52 49 25 24 26 32 50 51 66 67 67 67 67 67 66 65 64 64 63 62 62 60 59 59 58 57 57 56 56 56 55 55 55 55 55 55 54 53
32 29 24 22 31 23 17 16 21 26 50 53 55 49 41 56 62 63 64 65 66 66 65 65 64 62 61 60 58 56 56 56 55 55 55 53 52 52 51 51 50 50 50 50 49 50 50 50 49
34 35 26 26 27 29 30 30 48 48 51 55 55 57 59 60 60 61 62 62 63 63 61 59 57 56 55 55 54 54 54 52 52 51 50 50 49 49 48 49 48 49 49 48 47 48 48 48 47
Lifted_Index
10 11 10 7 5 4 3 3 2 1 1 1 0 -1 -3 -4 -2 -1 -1 -2 -4 -5 -5 -6 -6 -5 -4 -4 -3 -3 -2 -2 -2 -1 -1 -1 -1 -1 -1 -1 -2 -2 -2 -1 -0 -0 0 1 1
10 10 9 7 5 4 3 3 2 1 1 1 0 -1 -3 -4 -2 -1 -1 -3 -5 -5 -5 -6 -6 -5 -4 -4 -3 -3 -3 -2 -2 -2 -1 -1 -1 -1 -1 -1 -2 -2 -1 -1 -1 -0 0 1 1
10 10 8 6 5 3 3 3 2 2 1 1 0 -1 -4 -4 -3 -2 -3 -4 -5 -5 -5 -6 -6 -6 -5 -4 -3 -3 -3 -2 -2 -2 -1 -1 -2 -1 -1 -1 -1 -1 -1 -1 -0 -0 0 0 0
10 9 8 6 4 4 4 3 3 2 2 1 0 -1 -4 -5 -4 -4 -5 -5 -5 -4 -5 -6 -6 -6 -5 -4 -3 -3 -3 -3 -2 -2 -2 -2 -2 -2 -2 -1 -1 -1 -1 -0 -0 -0 -0 -0 0
11 9 7 5 4 4 5 4 3 3 2 1 1 -1 -4 -6 -6 -5 -5 -5 -5 -5 -5 -6 -6 -6 -5 -4 -3 -3 -3 -3 -2 -2 -2 -2 -2 -2 -2 -2 -2 -1 -1 -1 -1 -1 -1 -1 -1
10 9 6 4 4 5 6 5 4 3 3 2 1 -1 -4 -6 -6 -5 -5 -5 -5 -5 -5 -5 -5 -5 -5 -4 -4 -3 -3 -3 -3 -2 -2 -2 -2 -2 -2 -2 -2 -2 -2 -2 -2 -1 -1 -1 -1
9 8 6 5 5 5 6 6 5 4 3 2 1 -1 -4 -6 -6 -5 -5 -5 -5 -5 -5 -5 -5 -5 -5 -4 -4 -4 -3 -3 -3 -2 -2 -2 -2 -2 -2 -2 -2 -2 -2 -2 -2 -2 -2 -2 -2
9 8 6 6 5 5 5 6 5 4 3 2 1 -1 -4 -6 -6 -5 -4 -5 -5 -4 -4 -4 -4 -4 -4 -4 -4 -4 -4 -3 -3 -3 -2 -2 -2 -2 -2 -2 -2 -2 -3 -3 -3 -3 -2 -2 -2
8 7 6 6 6 6 5 5 5 4 3 2 0 -2 -5 -6 -5 -4 -4 -4 -4 -4 -4 -3 -4 -4 -4 -4 -4 -4 -4 -3 -3 -3 -3 -2 -2 -2 -2 -2 -2 -2 -3 -3 -3 -3 -3 -2 -2
7 7 6 6 7 6 6 5 5 4 2 1 -0 -3 -5 -6 -6 -4 -4 -4 -4 -4 -4 -3 -3 -3 -3 -4 -4 -4 -4 -3 -3 -3 -3 -2 -2 -2 -2 -2 -2 -2 -2 -2 -3 -3 -2 -2 -2
7 6 6 7 7 7 6 5 4 3 2 1 0 -2 -4 -6 -5 -4 -4 -4 -4 -4 -4 -3 -2 -2 -3 -3 -3 -3 -3 -3 -2 -2 -2 -1 -1 -1 -1 -2 -2 -2 -2 -2 -2 -2 -2 -1 -1
7 7 7 6 6 6 6 5 4 3 2 2 1 -0 -2 -3 -4 -4 -4 -4 -4 -4 -4 -3 -2 -2 -2 -2 -2 -2 -2 -2 -2 -2 -1 -1 -1 -1 -1 -2 -2 -2 -1 -1 -1 -1 -1 -0 -0
7 7 7 6 6 5 5 5 4 4 3 2 2 1 0 -1 -1 -2 -3 -4 -4 -4 -4 -3 -3 -2 -2 -2 -1 -1 -1 -1 -1 -1 -1 -1 -1 -1 -2 -2 -2 -2 -2 -1 -1 -0 -1 -1 -1
7 7 7 6 6 6 5 5 5 4 4 4 3 3 3 2 1 0 -1 -2 -4 -4 -3 -3 -3 -3 -3 -3 -2 -2 -2 -1 -2 -2 -2 -2 -2 -2 -2 -2 -2 -2 -2 -1 -1 -1 -1 -1 -1
6 6 6 7 7 6 5 5 5 5 4 4 4 4 4 4 3 2 1 -1 -3 -4 -3 -3 -3 -3 -4 -4 -3 -3 -3 -3 -3 -3 -4 -4 -3 -3 -4 -3 -3 -3 -2 -2 -2 -2 -1 -1 -1
5 5 5 6 6 6 5 5 5 5 5 5 5 5 5 5 5 4 2 -0 -3 -4 -3 -3 -2 -2 -3 -5 -4 -4 -4 -5 -5 -5 -5 -5 -5 -5 -5 -5 -5 -4 -4 -4 -3 -3 -2 -2 -2
4 5 5 6 6 6 5 5 5 5 5 5 5 5 5 5 6 5 4 1 -2 -4 -4 -3 -2 -1 -3 -5 -6 -5 -6 -6 -6 -6 -6 -6 -6 -6 -6 -6 -6 -6 -6 -5 -4 -4 -4 -3 -3
4 4 5 5 5 5 5 5 5 5 5 5 5 6 6 6 6 6 5 3 -2 -4 -4 -3 -2 -1 -2 -5 -6 -6 -7 -7 -7 -7 -7 -7 -7 -7 -7 -6 -6 -6 -6 -5 -5 -4 -4 -4 -4
4 4 4 4 4 4 5 5 5 5 5 5 6 6 6 6 6 6 6 3 -2 -5 -4 -4 -3 -2 -2 -5 -6 -7 -7 -8 -8 -8 -8 -8 -8 -7 -7 -7 -6 -6 -6 -6 -5 -4 -4 -3 -3
3 3 4 3 3 3 4 4 5 5 5 5 6 6 7 6 6 7 7 3 -4 -7 -5 -5 -5 -4 -5 -6 -8 -8 -8 -8 -8 -8 -8 -8 -7 -7 -7 -7 -7 -6 -6 -6 -5 -4 -3 -2 -2
2 2 3 3 2 2 3 3 4 4 5 5 6 6 7 7 7 7 7 3 -4 -7 -7 -7 -7 -7 -8 -8 -9 -9 -8 -8 -8 -8 -8 -8 -7 -7 -7 -7 -6 -6 -6 -5 -4 -3 -2 -2 -1
2 2 3 3 2 2 1 2 2 3 4 5 6 6 7 7 7 7 6 2 -4 -7 -7 -7 -7 -8 -9 -9 -9 -8 -8 -8 -7 -8 -8 -7 -7 -7 -7 -6 -6 -5 -5 -4 -4 -3 -2 -1 -1
1 2 3 2 1 1 1 1 1 2 4 5 6 6 6 7 7 7 5 -0 -5 -6 -6 -5 -6 -7 -8 -8 -8 -8 -7 -7 -7 -7 -7 -7 -7 -6 -6 -6 -5 -5 -5 -4 -3 -3 -2 -2 -2
1 1 2 1 1 1 1 1 1 2 4 5 6 6 6 6 6 6 3 -2 -5 -5 -4 -4 -5 -6 -7 -7 -8 -7 -7 -7 -7 -7 -7 -7 -6 -6 -5 -5 -5 -4 -4 -4 -3 -3 -3 -3 -3
-0 0 0 0 0 0 1 1 1 2 4 4 5 5 6 6 6 5 2 -2 -5 -5 -4 -5 -6 -6 -7 -7 -7 -6 -6 -6 -6 -6 -6 -6 -6 -5 -5 -5 -4 -4 -3 -3 -3 -3 -2 -2 -2
-1 -0 -0 -0 -0 0 1 1 2 2 2 2 3 4 5 6 6 4 2 -2 -4 -5 -5 -6 -7 -7 -6 -6 -6 -5 -5 -5 -5 -6 -6 -6 -5 -5 -4 -3 -3 -2 -2 -2 -2 -1 -1 -1 -1
-1 -0 -0 -0 -0 0 1 1 2 1 0 0 1 3 5 6 5 4 2 -1 -4 -5 -5 -6 -6 -6 -5 -5 -5 -4 -4 -4 -5 -5 -5 -5 -4 -3 -2 -2 -1 -1 -1 -1 -0 0 1 1 1
-0 -0 -0 -0 -0 0 0 1 1 1 -1 -2 -0 2 4 4 3 2 -0 -2 -4 -4 -5 -5 -5 -5 -4 -4 -4 -4 -4 -4 -5 -4 -4 -3 -2 -1 -0 0 0 1 1 1 2 3 4 4 4
-0 -0 -0 0 -0 -0 0 1 1 -1 -3 -3 -2 -0 1 0 -1 -1 -2 -3 -3 -4 -4 -4 -4 -3 -3 -3 -3 -3 -4 -4 -4 -3 -2 -1 0 1 2 3 3 4 4 5 5 6 6 7 7
-0 -1 -0 -0 -0 -0 0 0 -1 -2 -3 -4 -4 -2 -2 -2 -2 -2 -3 -3 -3 -3 -4 -4 -3 -3 -2 -3 -3 -3 -3 -3 -3 -2 -0 1 2 3 4 5 6 6 7 7 7 7 8 8 8